Dewpoint
70 70 69 69 69 69 68 68 69 69 69 71 71 72 72 73 73 74 74 74 74 74 74 75 75 75 75 75 75 75 74 74 74 73 71 69 68 67 66 66 65 64
70 70 70 69 69 70 69 69 69 69 69 70 71 72 72 73 73 73 73 73 74 74 74 75 75 75 75 75 74 74 74 74 74 74 72 70 68 67 66 66 65 65
70 69 69 69 68 69 70 69 69 69 69 69 71 71 72 73 73 73 73 73 73 74 74 74 75 75 75 75 74 74 74 74 74 73 72 71 70 68 67 66 66 65
70 69 69 69 69 69 70 70 69 69 70 70 70 71 72 73 73 73 73 75 73 73 74 74 74 75 75 75 74 74 74 74 74 73 73 72 70 69 68 67 66 65
69 69 69 69 69 69 69 70 70 69 70 70 70 71 72 72 73 73 73 73 73 73 74 74 74 74 75 74 74 74 74 73 73 73 73 72 71 70 69 68 67 66
70 70 69 69 69 69 69 69 71 70 70 70 71 71 72 72 73 72 73 73 73 73 73 73 74 74 74 74 74 74 74 73 73 73 73 72 72 71 70 69 68 67
69 69 69 69 69 69 69 69 70 71 71 70 71 72 72 72 72 72 72 72 73 73 73 73 73 74 74 74 74 73 73 73 73 73 73 73 72 71 70 69 69 68
69 69 69 69 69 69 69 69 69 70 71 71 70 71 72 72 72 73 73 72 72 73 73 73 73 73 74 74 74 73 73 73 73 73 73 72 72 72 71 70 69 68
69 69 69 69 69 69 69 69 70 70 71 71 71 71 72 73 73 73 73 73 72 72 73 73 73 73 73 73 73 73 73 73 73 73 73 72 72 72 72 71 70 69
69 69 69 69 69 69 69 69 70 70 71 71 71 71 71 72 73 73 73 73 72 72 72 73 73 73 73 73 73 73 73 73 73 73 73 73 72 72 72 72 71 70
69 69 69 69 69 69 69 70 70 70 70 71 72 72 71 71 72 73 73 73 73 72 72 72 73 73 73 73 73 73 73 73 73 73 73 73 73 72 73 72 72 71
69 69 69 69 69 69 69 69 70 70 70 71 71 72 72 72 71 72 72 72 73 73 73 73 73 73 73 73 73 73 73 73 73 73 73 73 73 73 72 72 72 72
69 69 69 69 69 69 69 69 69 70 70 70 71 71 72 72 72 71 72 72 72 72 73 73 73 73 73 73 73 73 73 73 73 73 73 73 73 73 73 73 72 72
70 69 69 69 70 70 70 69 69 70 70 70 70 70 71 71 72 72 72 72 72 72 72 72 72 73 73 73 73 73 73 73 73 73 73 73 73 73 73 73 73 73
70 70 70 70 70 70 70 70 70 70 70 70 70 70 70 70 71 72 72 72 72 72 72 72 72 72 73 73 73 73 73 73 73 73 73 73 73 73 73 73 73 73
70 71 70 70 70 70 70 70 70 70 70 70 70 70 70 70 70 71 72 72 72 72 72 72 72 72 70 66 68 73 73 73 73 73 73 73 73 73 73 73 73 73
71 71 71 70 70 70 70 70 70 70 70 70 70 70 70 70 70 69 70 71 72 72 72 72 72 72 67 64 64 66 71 73 73 73 73 73 73 73 73 73 73 73
71 71 71 71 71 70 70 70 70 70 70 70 70 70 70 70 70 69 69 69 70 71 71 72 72 67 65 64 63 63 66 72 73 73 73 73 73 73 73 73 73 73
71 71 71 71 71 71 71 71 70 70 70 70 70 70 70 70 70 70 69 69 69 69 70 71 71 66 64 63 63 62 62 66 72 72 73 73 73 73 73 73 73 73
72 71 71 71 71 71 71 71 70 70 70 70 70 70 70 70 70 70 70 69 69 69 69 70 70 66 63 61 61 61 62 63 70 72 72 72 73 73 73 73 73 73
72 72 71 71 71 71 71 71 71 70 70 70 70 70 70 70 70 70 70 70 70 69 69 69 69 64 62 60 59 59 61 62 69 71 72 72 72 73 73 73 73 73
72 72 72 72 72 71 71 71 71 71 70 70 70 70 70 70 70 70 70 70 70 70 69 69 69 63 61 60 59 59 60 66 69 70 71 72 72 72 73 73 73 73
72 72 72 72 72 71 71 71 71 71 71 71 70 70 69 69 69 69 70 69 70 70 70 69 69 65 60 58 58 58 59 67 68 70 71 71 72 72 72 73 73 73
72 72 72 72 72 71 71 71 71 71 71 71 70 70 69 69 69 69 69 69 69 69 70 69 69 66 60 57 57 57 61 68 69 69 70 71 71 72 72 72 73 71
73 73 72 72 72 71 71 71 71 71 71 71 71 70 70 70 69 69 69 69 69 69 68 69 69 67 60 58 56 56 61 68 69 70 70 70 71 71 72 72 72 72
73 73 73 72 72 72 72 71 71 71 71 71 71 70 70 70 70 69 69 69 69 69 69 70 70 70 68 58 56 55 57 68 70 70 70 70 71 71 71 71 72 72